Overview Statistics Trail Chart Weather Telemetry Raw packets
 

This is the latest recevied weather packets stored in our database for station/object 4S6DRJ-13. If no packets are shown the sender has not sent any weather packets the latest 10 day(s).

<< 224 225 226 227 228 229 230 >>
Time Temp. Humidity Pressure Rain* Wind** Luminosity Snow
1788135655 27.78° C 84% 1009.2 hPa 0 mm 1.79 m/s, 314° 0 W/m² -
1788135595 27.78° C 84% 1009.3 hPa 0 mm 0.45 m/s, 282° 0 W/m² -
1788135534 27.78° C 84% 1009.2 hPa 0 mm 1.34 m/s, 326° 0 W/m² -
1788135472 27.78° C 84% 1009.1 hPa 0 mm 0.89 m/s, 285° 0 W/m² -
1788135412 27.78° C 84% 1009.4 hPa 0 mm 0.89 m/s, 256° 0 W/m² -
1788135351 27.78° C 84% 1009.3 hPa 0 mm 1.34 m/s, 243° 0 W/m² -
1788135290 27.78° C 85% 1009.2 hPa 0 mm 1.79 m/s, 314° 0 W/m² -
1788135229 27.78° C 85% 1009.4 hPa 0 mm 0 m/s 0 W/m² -
1788135167 27.78° C 85% 1009.4 hPa 0 mm 0.89 m/s, 200° 0 W/m² -
1788135107 27.78° C 85% 1009.4 hPa 0 mm 1.34 m/s, 222° 0 W/m² -
1788135045 27.78° C 85% 1009.3 hPa 0 mm 0.89 m/s, 252° 0 W/m² -
1788134985 27.78° C 85% 1009.3 hPa 0 mm 0 m/s 0 W/m² -
1788134924 27.78° C 85% 1009.2 hPa 0 mm 0 m/s 0 W/m² -
1788134863 27.78° C 85% 1009.2 hPa 0 mm 0.89 m/s, 271° 0 W/m² -
1788134802 27.78° C 85% 1009.3 hPa 0 mm 0.45 m/s, 221° 0 W/m² -
1788134740 27.78° C 85% 1009.3 hPa 0 mm 0.89 m/s, 222° 0 W/m² -
1788134680 27.78° C 85% 1009.2 hPa 0 mm 0.45 m/s, 326° 0 W/m² -
1788134619 27.78° C 85% 1009.1 hPa 0 mm 1.34 m/s, 282° 0 W/m² -
1788134558 27.78° C 85% 1009.3 hPa 0 mm 0.89 m/s, 189° 0 W/m² -
1788134497 27.78° C 84% 1009.2 hPa 0 mm 0.45 m/s, 227° 0 W/m² -
1788134436 27.78° C 84% 1009.2 hPa 0 mm 1.34 m/s, 259° 0 W/m² -
1788134375 27.78° C 84% 1009.2 hPa 0 mm 0.89 m/s, 289° 0 W/m² -
1788134314 27.78° C 84% 1009.3 hPa 0 mm 0 m/s 0 W/m² -
1788134253 27.78° C 84% 1009 hPa 0 mm 0.45 m/s, 242° 0 W/m² -
1788134192 27.78° C 84% 1009.2 hPa 0 mm 0.89 m/s, 320° 0 W/m² -

* Rain latest hour (hover to see other rain measurements)
** Current wind speed in m/s (hover to see current wind gust speed)